Regional Weather Roundup
Issued by NWS

Home | Current Version | Previous Version | Graphics & Text | Print | Product List | Glossary On
Versions: 1 2 3 4 5 6 7 8 9 10 11 12 13 14 15 16 17 18 19 20 21 22 23 24 25 26 27 28 29 30 31 32 33 34 35 36 37 38 39 40 41 42 43 44 45 46 47 48 49 50
000
ASUS43 KMPX 031201
RWRMN
WEATHER ROUNDUP FOR MINNESOTA
NATIONAL WEATHER SERVICE TWIN CITIES/CHANHASSEN MN
700 AM CDT MON AUG 03 2015


NOTE: "FAIR" INDICATES FEW OR NO CLOUDS BELOW 12,000 FEET WITH NO
SIGNIFICANT WEATHER AND/OR OBSTRUCTIONS TO VISIBILITY. N/A MEANS
CURRENT SKY AND/OR WEATHER CONDITIONS ARE NOT AVAILABLE.

MNZ060>063-068>070-031300-
   Twin Cities Metro

CITY           SKY/WX    TMP DP  RH WIND       PRES   REMARKS
TWIN CITIES    CLEAR     62  53  72 NW7       29.88S
6HR MIN TEMP:  60; 6HR MAX TEMP:  67;

ST PAUL        CLEAR     61  53  75 NW7       29.88R
CRYSTAL        CLEAR     62  52  69 NW9       29.87R
BLAINE         CLEAR     59  54  82 W6        29.88S
LAKEVILLE      CLEAR     57  52  82 CALM      29.89R
EDEN PRAIRIE   CLEAR     63  53  70 NW6       29.87S
6HR MIN TEMP:  57; 6HR MAX TEMP:  67;

SOUTH ST PAUL  CLEAR     60  54  78 CALM      29.88R
LAKE ELMO      FAIR      55  52  88 W3        29.89R
$$
MNZ001>005-007-008-013>017-022>024-027-028-031300-
   Northwest Minnesota

CITY           SKY/WX    TMP DP  RH WIND       PRES   REMARKS
BEMIDJI        CLEAR     54  47  78 W6        29.89R
HALLOCK        CLEAR     50  46  87 W3        29.89F
ROSEAU         CLEAR     54  48  82 W7        29.87R
WARROAD        PTCLDY    54  50  87 W7        29.86S
THIEF RVR FALL CLEAR     52  46  82 W5        29.91S
CROOKSTON      CLEAR     48  46  93 CALM      29.92S
FOSSTON        CLEAR     46  45  93 CALM      29.92R
DETROIT LAKES  CLEAR     54  50  87 CALM      29.93S
MOORHEAD       CLEAR     50  46  87 CALM      29.94R
PARK RAPIDS    CLEAR     52  48  86 NW5       29.91R
MAHNOMEN       FAIR      49  47  92 CALM      29.91S
$$
MNZ006-009>011-018-025>026-031300-
   North Central Minnesota

CITY           SKY/WX    TMP DP  RH WIND       PRES   REMARKS
BAUDETTE       CLOUDY    57  51  80 W7        29.84R
FLAG ISLAND    CLOUDY    57  54  88 NW20G28   29.83R
INTL FALLS     CLOUDY    58  52  80 W9        29.80R
6HR MIN TEMP:  55; 6HR MAX TEMP:  58;

WASKISH        CLOUDY    57  52  82 W13G20    29.86R
BIG FORK       PTCLDY    55  48  76 NW3       29.84S
LONGVILLE      CLEAR     59  50  72 NW8       29.87R
GRAND RAPIDS   CLEAR     57  48  72 NW10      29.85R
CRANE LAKE     CLOUDY    55  52  88 W7        29.80R
ORR            PTSUNNY   55  48  76 W7        29.78R
COOK           PTSUNNY   55  48  76 W6        29.81R
WALKER         FAIR      53  46  79 W6        29.89R
$$
MNZ012-019>021-037-031300-
   Northeast Minnesota

CITY           SKY/WX    TMP DP  RH WIND       PRES   REMARKS
DULUTH         MOSUNNY   59  48  67 NW12      29.80S
6HR MIN TEMP:  54; 6HR MAX TEMP:  59;

ELY            CLOUDY    55  48  76 W7        29.77R
HIBBING        CLEAR     57  48  72 W10       29.82R
EVELETH        MOSUNNY   57  46  67 W9        29.82R
DULUTH HARBOR  CLOUDY    63  52  67 W16       29.80R
TWO HARBORS    CLOUDY    59  50  72 W3        29.77R
SILVER BAY     PTSUNNY   57  48  72 W7        29.75R
GRAND MARAIS     N/A     46  43  89 SW7       29.71S
G MARAIS ARPRT   N/A     55  48  76 NW7       29.73S
$$
MNZ029>031-032-039>041-046>048-054>057-064-031300-
   West Central Minnesota

CITY           SKY/WX    TMP DP  RH WIND       PRES   REMARKS
FERGUS FALLS   CLEAR     52  50  93 NW3       29.94S
WHEATON        CLEAR     55  52  88 W3        29.96R
MORRIS         CLEAR     52  50  93 W5        29.93R
ALEXANDRIA     CLEAR     56  52  86 W3        29.93S
ELBOW LAKE     FAIR      53  50  90 NW7       29.93R
WADENA         CLEAR     50  48  93 CALM      29.92R
GLENWOOD       CLEAR     55  52  88 W6        29.93R
APPLETON       CLEAR     54  50  87 W5        29.93R
BENSON         CLEAR     52  48  87 N3        29.93S
ORTONVILLE     CLEAR     57  54  88 W3        29.94R
MADISON        CLEAR     57  52  82 NW7       29.94R
WILLMAR        FAIR      54  52  94 W5        29.94R
$$
MNZ033>034-036-042>043-049>051-058-059-031300-
   Central Minnesota

CITY           SKY/WX    TMP DP  RH WIND       PRES   REMARKS
ST CLOUD       CLEAR     56  52  86 NW5       29.89S
6HR MIN TEMP:  51; 6HR MAX TEMP:  59;

SAUK CENTRE    FAIR      52  50  91 W3        29.92R
PAYNESVILLE    CLEAR     50  49  98 SW3       29.92R
AITKIN         CLEAR     57  48  72 W3        29.85S
PINE RIVER     CLEAR     55  48  76 W7        29.92R
BRAINERD       CLEAR     58  50  75 W8        29.89R
STAPLES        CLEAR     52  50  93 W5        29.91R
LONG PRAIRIE   FAIR      54  50  87 CALM      29.92R
LITCHFIELD     CLEAR     63  55  77 NW3       29.92R
BUFFALO        CLEAR     59  52  77 CALM      29.90S
MAPLE LAKE     CLEAR     57  54  88 W3        29.90S
$$
MNZ037-044-045-052-053-031300-
   East Central Minnesota

CITY           SKY/WX    TMP DP  RH WIND       PRES   REMARKS
PRINCETON      CLEAR     55  52  88 W5        29.88S
MORA           CLEAR     54  46  76 W3        29.88R
CAMBRIDGE      CLEAR     57  48  72 W5        29.86R
RUSH CITY      PTCLDY    54  50  86 CALM      29.86S
MOOSE LAKE     CLEAR     55  48  76 NW3       29.83R
HINCKLEY       PTSUNNY   55  50  82 W6        29.85R
CLOQUET        MOCLDY    57  46  67 W8        29.83R
MCGREGOR       CLEAR     59  46  63 W8        29.86R
$$
MNZ071>073-080-081-089-090-097-098-031300-
   Southwest Minnesota

CITY           SKY/WX    TMP DP  RH WIND       PRES   REMARKS
MONTEVIDEO     CLEAR     57  52  82 N6        29.95R
GRANITE FALLS  CLEAR     52  51  95 W5        29.95R
CANBY          CLEAR     56  51  84 W3        29.96R
MARSHALL       CLEAR     55  46  71 NW7       29.95R
REDWOOD FALLS  CLEAR     56  53  90 W7        29.93R
OLIVIA         CLEAR     52  50  93 NW3       29.92R
PIPESTONE      CLEAR     55  52  88 SW5       29.98R
WINDOM         CLEAR     55  52  88 CALM      29.96R
WORTHINGTON    CLEAR     54  48  82 SW6       29.98R
JACKSON        CLEAR     54  52  94 W3        29.97R
TRACY          CLEAR     59  52  77 W7        29.96R
SLAYTON        CLEAR     56  52  88 CALM      29.99R
$$
MNZ065>067-074>077-082>085-091>093-031300-
   South Central Minnesota

CITY           SKY/WX    TMP DP  RH WIND       PRES   REMARKS
MANKATO        CLEAR     57  52  82 W7        29.92R
NEW ULM        CLEAR     54  52  94 W7        29.93R
ST JAMES         N/A     57  54  88 CALM      29.95R
FAIRMONT       CLEAR     55  48  76 CALM      29.95R
GLENCOE        CLEAR     58  54  85 W5        29.90S
FARIBAULT      CLEAR     57  55  94 W5        29.91R
OWATONNA       CLEAR     54  52  94 SW5       29.91R
WASECA         CLEAR     52  50  93 CALM      29.93R
ALBERT LEA     CLEAR     57  55  94 CALM      29.93R
$$
MNZ078>079-086>088-094>096-031300-
   Southeast Minnesota

CITY           SKY/WX    TMP DP  RH WIND       PRES   REMARKS
ROCHESTER      CLEAR     55  51  86 W9        29.91R
6HR MIN TEMP:  53; 6HR MAX TEMP:  60;

RED WING       CLEAR     55  54  94 NW3       29.86F
STANTON        CLEAR     54  51  90 CALM      29.88S
DODGE CENTER   CLEAR     54  52  94 W6        29.90S
WINONA         CLEAR     59  54  82 CALM      29.88R
AUSTIN         CLEAR     59  54  82 W3        29.91R
PRESTON        CLEAR     55  51  87 W5        29.91R
$$
ABBREVIATIONS USED IN REMARKS
   TC - TEMPERATURES IN CELSIUS
  WCI - WIND CHILL INDEX
   HX - HEAT INDEX
  VSB - VISIBILITY
$$


USA.gov is the U.S. government's official web portal to all federal, state and local government web resources and services.